Location: Bremen
(53.0793°N, 8.8017°E)
Time: 21:02:32
(UTC+02:00)

Envisat - Pass Details

Date: 28 February 2024
Orbit: 762 x 764 km, 98.3° (Epoch: 13 April)

Event Time Altitude Azimuth Distance (km) Brightness Sun altitude
Rises 05:53:46 0° 6° (N) 3,245 6.4 -13.1°
Reaches altitude 10° 05:56:46 10° 348° (NNW) 2,314 5.4 -12.6°
Maximum altitude 06:00:02 18° 308° (NW) 1,839 4.5 -12.1°
Enters shadow 06:01:43 15° 284° (WNW) 1,971 4.5 -11.9°
